Погода в Монте-Горду

Португалия     37°10′56″N   7°27′04″W
темп.,
°C
ветер,
м/с
пор.,
м/с
влажн.,
%
обл.,
%
осадки,
мм/ч
давл.,
гПа
погр.,
м
13 мая, чт
чт1301:00+14ссз511685 0.0 1022337
04:00+12ссз511752 0.0 1021326
07:00+12ссз411830 0.0 1021382
10:00+19ссз67480 0.0 1021881
13:00+24сз56375 0.0 10201686
16:00+26сз563761 0.0 10182101
19:00+22сз9105217 0.0 10181435
22:00+17сз4977100 0.0 1019333
14 мая, пт
пт1401:00+15ссз5128450 0.0 1020548
04:00+13ссз411890 0.0 1019345
07:00+12ссз411936 0.0 1019365
10:00+19с795144 0.0 1020733
13:00+26ссз77255 0.0 10191400
16:00+28с56217 0.0 10171834
19:00+27с772625 0.0 10161656
22:00+20ссз6125214 0.0 1018303
15 мая, сб
сб1501:00+17ссз6135996 0.0 1018298
04:00+15ссз61367100 0.0 1017267
07:00+14ссз5117248 0.0 1018232
10:00+23с793615 0.0 1018538
13:00+29с66215 0.0 10171269
16:00+32с55175 0.0 10151889
19:00+30ссз76283 0.0 10151835
22:00+22ссз715510 0.0 1017411
16 мая, вс
вс1601:00+19ссз714690 0.0 1017344
04:00+17ссз614740 0.0 1016291
07:00+16ссз614770 0.0 1016295
10:00+25с810410 0.0 1016657
13:00+31ссз77250 0.0 10161571
16:00+32ссз772141 0.0 10142065
19:00+29ссз8827100 0.0 10141673
22:00+22ссз8145590 0.0 1017468
17 мая, пн
пн1701:00+18ссз8157348 0.0 1016442
04:00+16ссз715695 0.0 1017385
07:00+15ссз715565 0.0 1018381
10:00+22с810245 0.0 1019698
13:00+29ссз77165 0.0 10181280
16:00+30ссз981732 0.0 10171790
19:00+28ссз8922100 0.0 10171311
22:00+21ссз8143271 0.0 1020498